Showing default

APSTAR 6E, 55239

Orbit data source: Space-Track

APSTAR 6E, 55239 is a payload satellite owned by APT Shenzhen (CN) in GEO that was launched on Thu, 12 Jan 2023 UTC via a CHANG ZHENG 2C launch vehicle from the Xichang Space Center, China (XSC). Payload-class satellites include a variety of spacecraft equipped with specific instruments for various scientific and technological missions. These include communications satellites like Starlink; space stations such as the ISS; scientific satellites like the Hubble; Earth observation satellites from companies like Planet Labs, Umbra, and HawkEye 360; GPS; miniature CubeSats for education and research; and military/defense satellites.

Not visible in the next 10 days
Identifier
55239, 2023-005A
Orbit
GEO
Country
Flag of CNCN / PRC
Related business
Manufacturer
CAST
Mission
Partially operational Commercial Communications
Bus & Motor
DFH-3E, EP-AOCS
Mass
~2,090 kg wet, ~2,000 kg dry
Launch date (UTC)
2023-01-12 (3 years ago)
Launch vehicle
CHANG ZHENG 2C
Launch site
Xichang Space Center, China (XSC)
Object type
Payload
Rocket body
Debris
Shape & HBR
Box + 2 Pan, 15.0 m
Radar Cross Section
34.063 m², Large (>1 m²)

Expand to show TLE details & history
Last TLE update: 1 day ago

TLE from 1 day ago
0 APSTAR 6E
1 55239U 23005A   26094.41670079 -.00000318  00000-0  00000-0 0  9992
2 55239   0.0177 218.6762 0000674 151.7754 106.2989  1.00271001 17959
Epoch: 2026-04-04T10:00Z
TLE epoch observation values (Epoch: 2026-04-04T10:00:02.948Z)
Latitude
-0.04193°
Longitude
134.01653°
Altitude
35,787.11 km
Speed
3.075 km/s
True Right ascension
07h 47m 03s
True Declination
0° 02' 31"
Sunlit
Object was in daylight at epoch
Visualization orbit readout
Latitude
Unknown
Longitude
Unknown
Altitude
Unknown
Speed
Unknown
Apparent Right ascension
Unknown
Apparent Declination
Unknown
Sunlit
N/A
Visualization observer readout
Local Sidereal Time
23:13:29
Azimuth
Unknown
Elevation
Unknown
Doppler factor
Unknown
Orbital elements
Apogee altitude
35,790.727 km
Perigee altitude
35,785.043 km
Semi-major axis
42,166.022 km
Eccentricity
0.00007
Inclination
0.0177°
RAAN
218.6762°
Arg. of periapsis
151.7754°
True anomaly
106.30631°
Mean anomaly
106.2989°
Eccentric anomaly
106.30261°
Mean motion
0.25067 °/min
Orbital period
1,436.16 mins
BSTAR
0
Loading maneuver chart data...
Computing Atmospheric mass density...
Loading historical data...
Loading historical data...
Loading historical data...
Loading historical data...
Loading historical data...
Loading historical data...
Loading historical data...
Other satellites on launch #5 in the year 2023 (2023-01-12 UTC)

Documentation

Showing up to 5 results
|